Location: LDNL
(36.4545°S, 141.6685°E)
Time: 05:01:01
(UTC+11:00)

Vanguard 2 - Pass Details

Date: 20 August 2022
Orbit: 552 x 2934 km, 32.9° (Epoch: 06 October)

Event Time Altitude Azimuth Distance (km) Brightness Sun altitude
Rises 12:46:36 0° 330° (NNW) 5,825 12.7 41.0°
Reaches altitude 10° 12:50:34 10° 338° (NNW) 5,099 12.8 41.0°
Maximum altitude 13:04:19 37° 38° (NE) 3,916 12.2 40.6°
Drops below altitude 10° 13:19:28 10° 95° (E) 5,651 11.9 40.1°
Sets 13:24:06 0° 103° (ESE) 6,504 12.0 39.8°
